カタログに戻る

COSMOS 726

運用中軍事PO
NORAD 7736·PAYLOAD·🇷🇺 Russia

打ち上げ Apr 11, 1975 から Plesetsk Cosmodrome

Loading…

次のパス (今後24時間)

TLE

最新Source: Space-Track

元期: Sep 14, 2026, 10:17 UTC

1 07736U 75028A   26257.42858161  .00000063  00000-0  46695-4 0  9995
2 07736  82.9988 155.9539 0026278 153.2744 206.9775 13.78460326585988

AllMySatでCOSMOS 726をリアルタイム追跡

Download on the App Store